This is the latest recevied weather packets stored in our database for station/object K6MBY. If no packets are shown the sender has not sent any weather packets the latest 10 day(s).
| Time | Temp. | Humidity | Pressure | Rain* | Wind** | Luminosity | Snow |
|---|---|---|---|---|---|---|---|
| 1777156966 | 17.22° C | 28% | 1014.7 hPa | 0 mm | - | 623 W/m² | - |
| 1777156666 | 16.67° C | 27% | 1014.9 hPa | 0 mm | - | 637 W/m² | - |
| 1777156363 | 17.22° C | 29% | 1014.7 hPa | 0 mm | - | 647 W/m² | - |
| 1777156059 | 16.67° C | 28% | 1015 hPa | 0 mm | - | 657 W/m² | - |
| 1777155756 | 16.67° C | 29% | 1015.1 hPa | 0 mm | - | 668 W/m² | - |
| 1777155451 | 16.67° C | 27% | 1014.9 hPa | 0 mm | - | 678 W/m² | - |
| 1777155148 | 16.67° C | 26% | 1014.9 hPa | 0 mm | - | 688 W/m² | - |
| 1777154845 | 17.22° C | 27% | 1015 hPa | 0 mm | - | 697 W/m² | - |
| 1777154542 | 16.67° C | 29% | 1015.1 hPa | 0 mm | - | 707 W/m² | - |
| 1777154237 | 16.67° C | 26% | 1015.3 hPa | 0 mm | - | 716 W/m² | - |
| 1777153934 | 16.67° C | 27% | 1015.3 hPa | 0 mm | - | 725 W/m² | - |
| 1777153630 | 17.22° C | 25% | 1015.2 hPa | 0 mm | - | 735 W/m² | - |
| 1777153326 | 17.22° C | 27% | 1015.4 hPa | 0 mm | - | 742 W/m² | - |
| 1777153022 | 17.22° C | 24% | 1015.4 hPa | 0 mm | - | 749 W/m² | - |
| 1777152719 | 17.78° C | 23% | 1015.5 hPa | 0 mm | - | 758 W/m² | - |
| 1777152416 | 17.78° C | 28% | 1015.4 hPa | 0 mm | - | 764 W/m² | - |
| 1777152112 | 17.22° C | 33% | 1015.4 hPa | 0 mm | - | 771 W/m² | - |
| 1777151807 | 16.67° C | 31% | 1015.7 hPa | 0 mm | - | 777 W/m² | - |
| 1777151504 | 16.67° C | 30% | 1015.7 hPa | 0 mm | - | 782 W/m² | - |
| 1777151200 | 16.67° C | 32% | 1015.6 hPa | 0 mm | - | 788 W/m² | - |
| 1777150899 | 15.56° C | 33% | 1015.7 hPa | 0 mm | - | 794 W/m² | - |
| 1777150595 | 15.56° C | 29% | 1015.9 hPa | 0 mm | - | 799 W/m² | - |
| 1777150291 | 15.56° C | 33% | 1015.7 hPa | 0 mm | - | 803 W/m² | - |
| 1777149989 | 15.56° C | 35% | 1015.9 hPa | 0 mm | - | 808 W/m² | - |
| 1777149684 | 15.56° C | 35% | 1015.9 hPa | 0 mm | - | 812 W/m² | - |
* Rain latest hour (hover to see other rain measurements)
** Current wind speed in m/s (hover to see current wind gust speed)